Flag for U.S.A. Weather past 2 weeks in Oxnard, California, U.S.A.

Now
64 °F

Sunny.


Feels Like: 64 °F
Forecast: 49 / 62 °F
Wind: 17 mph from West

Location: Oxnard Airport

Current Time: Feb 27, 2015 at 4:48:44 PM

Latest Report: Feb 27, 2015 at 3:51 PM


Visibility: 10 mi

Pressure: 29.74 "Hg

Humidity: 65%

Dew point: 52 °F

Location of OxnardLocation

Historic Weather in Oxnard — Graph

°F

Oxnard temperature yesterday

Maximum temperature yesterday: 65 °F (at 12:51 PM)
Minimum temperature yesterday: 47 °F (at 6:51 AM)
Average temperature yesterday: 57 °F

Past Weeks' High & Low Weather Summary

 TemperatureHumidityPressure
High86 °F (Feb 12, 2:51 PM)96% (Feb 16, 6:51 AM)30.27 "Hg (Feb 16, 6:51 AM)
Low45 °F (Feb 24, 4:51 AM)11% (Feb 12, 3:51 PM)29.76 "Hg (Feb 27, 2:51 PM)
Average60 °F68%30.01 "Hg
* Reported Feb 12 2:51 PM — Feb 27 2:51 PM, Oxnard, Weather by CustomWeather, © 2015

Note: Actual official high and low records may vary slightly from our data, if they occured in-between our weather recording intervals... More about our weather records

Advertising

Oxnard weather history for previous 24 hours

 ConditionsComfort  
Time TempWeatherWind HumidityBarometerVisibility
2:51 PM
Fri, Feb 27
64 °FSunny.12 mph63%29.76 "Hg10 mi
1:51 PM65 °FScattered clouds.14 mph63%29.77 "Hg10 mi
12:51 PM64 °FMostly cloudy.12 mph63%29.80 "Hg10 mi
11:51 AM63 °FPassing clouds.10 mph70%29.83 "Hg9 mi
10:51 AM63 °FSunny.10 mph70%29.84 "Hg9 mi
9:51 AM61 °FOvercast.10 mph75%29.86 "Hg8 mi
8:51 AM57 °FMostly cloudy.7 mph72%29.85 "Hg8 mi
7:58 AM56 °FOvercast.6 mph77%29.83 "Hg7 mi
6:51 AM54 °FOvercast.7 mph83%29.82 "Hg8 mi
5:51 AM53 °FOvercast.8 mph86%29.80 "Hg9 mi
4:51 AM53 °FOvercast.No wind83%29.81 "Hg10 mi
3:51 AM52 °FOvercast.5 mph86%29.80 "Hg10 mi
2:51 AM51 °FOvercast.3 mph86%29.81 "Hg10 mi
1:51 AM51 °FPassing clouds.5 mph86%29.82 "Hg9 mi
12:51 AM52 °FPassing clouds.6 mph83%29.82 "Hg9 mi
11:51 PM
Thu, Feb 26
54 °FClear.No wind83%29.83 "Hg8 mi
10:51 PM54 °FClear.5 mph83%29.84 "Hg8 mi
9:51 PM55 °FClear.6 mph83%29.85 "Hg8 mi
8:51 PM57 °FClear.3 mph81%29.85 "Hg7 mi
7:51 PM59 °FClear.3 mph78%29.85 "Hg9 mi
6:51 PM61 °FClear.No wind75%29.85 "Hg9 mi
5:51 PM61 °FPassing clouds.6 mph78%29.83 "Hg8 mi
4:51 PM63 °FSunny.6 mph70%29.84 "Hg9 mi
Weather by CustomWeather, © 2015

See weather overviewHow to use our weather pages